Corvallis Municipal Airport
KCVO : rendu visible

Aérodrome :











RETROUVEZ-NOUS SUR...

 
LOGIN :

S'inscrire | Disclaimer

   EN    FR    IT 

 









Légende :    VFR   VFR Marginal   IFR   IFR Intensif   IFR Très Intensif
Visi : 
Plafond : 
>= 8 km
>= 3000ft
5 à 8 km
1000 à 3000 ft
1500m à 5 km
500 à 1000 ft
800 à 1500m
200 à 500 ft
< 800m
< 200 ft
Symboles :   Orages  Brouillard  Fortes neiges  Fortes précipitations  Vent > 20 kt






- Altitude de l'aérodrome : 250 ft


KCVO - Corvallis Municipal

DERNIER METAR :
  • 300156Z AUTO 00000KT 6SM BR OVC005 10/09 A3007 RMK AO2 SLP186 T01000094

METARs EXPIRÉS :
  • 300056Z AUTO 00000KT 5SM BR OVC005 11/09 A3008 RMK AO2 SLP189 T01060094
  • 292356Z AUTO 00000KT 8SM OVC005 11/09 A3010 RMK AO2 SLP195 T01060094 10106 20083 58010

TAF N/A
FIR KZSE / Amérique du Nord



MET'MAP, la Météo Aéronautique d'un coup d'oeil ! - Copyright ORBIFLY Décembre 2007 - Disclaimer

ORBIFLY MET'MAP TEAM :

Programmation & Développement : Alexandra Zaïnal
Sur une idée originale de : Baudouin d'Aumeries
Assistance à la programmation : Marc-Olivier Méhu
Soutien technique & logistique : Manuel Goepfert

Contact : metmap@orbifly.com




SOURCES & CREDITS :

   NOAA       Earth
Advisory